Previsão horária em Kabaki

Hoje, 19 Junho, Sábado

Tempo Temperatura Precipitação Vento Pressão Humidade
00:00 +18°C° 0 mm 3 m/s 751 mmHg 84%
01:00 +17°C° 0 mm 3 m/s 751 mmHg 87%
02:00 +16°C° 0 mm 3 m/s 751 mmHg 91%
03:00 +16°C° 0 mm 2 m/s 751 mmHg 91%
04:00 +17°C° 0 mm 2 m/s 751 mmHg 91%
05:00 +17°C° 0 mm 2 m/s 751 mmHg 90%
06:00 +19°C° 0 mm 2 m/s 751 mmHg 86%
07:00 +21°C° 0 mm 3 m/s 751 mmHg 81%
08:00 +24°C° 0 mm 3 m/s 751 mmHg 76%
09:00 +25°C° 0 mm 3 m/s 751 mmHg 72%
10:00 +26°C° 0 mm 4 m/s 751 mmHg 67%
11:00 +27°C° 0 mm 4 m/s 751 mmHg 63%
12:00 +28°C° 0 mm 4 m/s 751 mmHg 60%
13:00 +28°C° 0 mm 4 m/s 750 mmHg 56%
14:00 +28°C° 0 mm 4 m/s 750 mmHg 53%
15:00 +28°C° 0 mm 4 m/s 750 mmHg 55%
16:00 +28°C° 0 mm 4 m/s 750 mmHg 56%
17:00 +28°C° 0 mm 3 m/s 750 mmHg 58%
18:00 +26°C° 0.1 mm 3 m/s 750 mmHg 66%
19:00 +25°C° 0.1 mm 3 m/s 749 mmHg 73%
20:00 +23°C° 0.1 mm 2 m/s 749 mmHg 81%
21:00 +21°C° 0 mm 2 m/s 749 mmHg 84%
22:00 +20°C° 0 mm 2 m/s 749 mmHg 86%
23:00 +19°C° 0 mm 2 m/s 749 mmHg 89%

Amanhã, 20 Junho, Domingo

Tempo Temperatura Precipitação Vento Pressão Humidade
00:00 +19°C° 0 mm 2 m/s 749 mmHg 90%
01:00 +18°C° 0 mm 2 m/s 749 mmHg 91%
02:00 +18°C° 0 mm 2 m/s 750 mmHg 93%
03:00 +18°C° 0 mm 2 m/s 749 mmHg 93%
04:00 +18°C° 0 mm 2 m/s 749 mmHg 93%
05:00 +18°C° 0 mm 2 m/s 749 mmHg 94%
06:00 +20°C° 0 mm 3 m/s 749 mmHg 88%
07:00 +21°C° 0 mm 3 m/s 749 mmHg 83%
08:00 +24°C° 0 mm 3 m/s 749 mmHg 78%
09:00 +25°C° 0 mm 4 m/s 749 mmHg 73%
10:00 +27°C° 0 mm 5 m/s 749 mmHg 68%
11:00 +28°C° 0 mm 5 m/s 749 mmHg 63%
12:00 +28°C° 0 mm 5 m/s 748 mmHg 60%
13:00 +29°C° 0 mm 5 m/s 748 mmHg 58%
14:00 +29°C° 0 mm 5 m/s 748 mmHg 55%
15:00 +28°C° 0.3 mm 4 m/s 747 mmHg 60%
16:00 +28°C° 0.3 mm 4 m/s 747 mmHg 66%
17:00 +27°C° 0.3 mm 4 m/s 747 mmHg 71%
18:00 +26°C° 0.1 mm 3 m/s 747 mmHg 75%
19:00 +25°C° 0.1 mm 3 m/s 747 mmHg 79%
20:00 +24°C° 0.1 mm 3 m/s 746 mmHg 83%
21:00 +22°C° 0 mm 3 m/s 746 mmHg 85%
22:00 +21°C° 0 mm 3 m/s 746 mmHg 87%
23:00 +21°C° 0 mm 4 m/s 746 mmHg 88%

Depois de amanhã, 21 Junho, Segunda-feira

Tempo Temperatura Precipitação Vento Pressão Humidade
00:00 +20°C° 0 mm 3 m/s 746 mmHg 90%
01:00 +19°C° 0 mm 3 m/s 746 mmHg 91%
02:00 +19°C° 0 mm 3 m/s 746 mmHg 93%
03:00 +18°C° 0 mm 3 m/s 746 mmHg 94%
04:00 +18°C° 0 mm 3 m/s 746 mmHg 94%
05:00 +18°C° 0 mm 3 m/s 746 mmHg 95%
06:00 +19°C° 0 mm 3 m/s 746 mmHg 89%
07:00 +21°C° 0 mm 4 m/s 746 mmHg 84%
08:00 +22°C° 0 mm 5 m/s 746 mmHg 78%
09:00 +23°C° 0 mm 5 m/s 746 mmHg 74%
10:00 +26°C° 0 mm 5 m/s 745 mmHg 69%
11:00 +27°C° 0 mm 5 m/s 745 mmHg 64%
12:00 +27°C° 0.2 mm 5 m/s 745 mmHg 65%
13:00 +27°C° 0.2 mm 4 m/s 745 mmHg 65%
14:00 +27°C° 0.2 mm 4 m/s 745 mmHg 65%
15:00 +28°C° 0.1 mm 4 m/s 745 mmHg 64%
16:00 +28°C° 0.1 mm 4 m/s 744 mmHg 63%
17:00 +28°C° 0.1 mm 4 m/s 744 mmHg 62%
18:00 +27°C° 0.3 mm 3 m/s 744 mmHg 69%
19:00 +25°C° 0.3 mm 3 m/s 744 mmHg 76%
20:00 +24°C° 0.3 mm 3 m/s 744 mmHg 82%
21:00 +22°C° 0 mm 3 m/s 744 mmHg 85%
22:00 +21°C° 0 mm 3 m/s 744 mmHg 88%
23:00 +20°C° 0 mm 3 m/s 744 mmHg 91%

22 Junho, Terça-feira

Tempo Temperatura Precipitação Vento Pressão Humidade
00:00 +20°C° 0 mm 2 m/s 744 mmHg 92%
01:00 +20°C° 0 mm 2 m/s 744 mmHg 93%
02:00 +19°C° 0 mm 2 m/s 744 mmHg 94%
03:00 +19°C° 0 mm 2 m/s 744 mmHg 94%
04:00 +19°C° 0 mm 2 m/s 744 mmHg 94%
05:00 +19°C° 0 mm 2 m/s 744 mmHg 95%
06:00 +21°C° 0 mm 3 m/s 745 mmHg 89%
07:00 +22°C° 0 mm 3 m/s 745 mmHg 83%
08:00 +25°C° 0 mm 4 m/s 745 mmHg 77%
09:00 +26°C° 0 mm 4 m/s 745 mmHg 71%
10:00 +27°C° 0 mm 4 m/s 745 mmHg 66%
11:00 +28°C° 0 mm 4 m/s 746 mmHg 60%
12:00 +29°C° 0.3 mm 4 m/s 746 mmHg 59%
13:00 +29°C° 0.3 mm 4 m/s 746 mmHg 57%
14:00 +30°C° 0.3 mm 3 m/s 746 mmHg 56%
15:00 +29°C° 0 mm 3 m/s 746 mmHg 58%
16:00 +29°C° 0 mm 3 m/s 746 mmHg 60%
17:00 +29°C° 0 mm 2 m/s 746 mmHg 63%
18:00 +28°C° 0.1 mm 2 m/s 746 mmHg 68%
19:00 +27°C° 0.1 mm 3 m/s 746 mmHg 72%
20:00 +25°C° 0.1 mm 3 m/s 746 mmHg 77%
21:00 +24°C° 0.2 mm 3 m/s 746 mmHg 81%
22:00 +21°C° 0.2 mm 3 m/s 746 mmHg 85%
23:00 +20°C° 0.2 mm 3 m/s 746 mmHg 89%

23 Junho, Quarta-feira

Tempo Temperatura Precipitação Vento Pressão Humidade
00:00 +20°C° 0 mm 3 m/s 746 mmHg 91%
01:00 +20°C° 0 mm 3 m/s 746 mmHg 92%
02:00 +19°C° 0 mm 2 m/s 746 mmHg 93%
03:00 +20°C° 0 mm 2 m/s 747 mmHg 93%
04:00 +20°C° 0 mm 2 m/s 747 mmHg 93%
05:00 +20°C° 0 mm 2 m/s 747 mmHg 94%
06:00 +23°C° 0 mm 2 m/s 747 mmHg 88%
07:00 +24°C° 0 mm 2 m/s 747 mmHg 82%
08:00 +26°C° 0 mm 2 m/s 747 mmHg 76%
09:00 +27°C° 0.6 mm 2 m/s 748 mmHg 73%
10:00 +28°C° 0.6 mm 3 m/s 748 mmHg 70%
11:00 +29°C° 0.6 mm 3 m/s 748 mmHg 67%
12:00 +30°C° 0.3 mm 3 m/s 748 mmHg 63%
13:00 +30°C° 0.3 mm 3 m/s 748 mmHg 60%
14:00 +31°C° 0.3 mm 3 m/s 748 mmHg 56%
15:00 +31°C° 0.2 mm 2 m/s 748 mmHg 57%
16:00 +31°C° 0.2 mm 2 m/s 748 mmHg 58%
17:00 +31°C° 0.2 mm 2 m/s 748 mmHg 59%
18:00 +29°C° 0.1 mm 2 m/s 748 mmHg 65%
19:00 +28°C° 0.1 mm 2 m/s 748 mmHg 71%
20:00 +27°C° 0.1 mm 2 m/s 748 mmHg 76%
21:00 +26°C° 0 mm 2 m/s 748 mmHg 77%
22:00 +25°C° 0 mm 2 m/s 748 mmHg 79%
23:00 +24°C° 0 mm 2 m/s 747 mmHg 80%

24 Junho, Quinta-feira

Tempo Temperatura Precipitação Vento Pressão Humidade
00:00 +24°C° 0.1 mm 2 m/s 748 mmHg 82%
01:00 +23°C° 0.1 mm 2 m/s 748 mmHg 85%
02:00 +22°C° 0.1 mm 1 m/s 748 mmHg 88%
03:00 +22°C° 0 mm 1 m/s 748 mmHg 87%
04:00 +23°C° 0 mm 1 m/s 748 mmHg 87%
05:00 +23°C° 0 mm 1 m/s 748 mmHg 87%
06:00 +24°C° 0 mm 1 m/s 748 mmHg 82%
07:00 +26°C° 0 mm 2 m/s 748 mmHg 77%
08:00 +27°C° 0 mm 2 m/s 748 mmHg 72%
09:00 +28°C° 0.4 mm 2 m/s 748 mmHg 69%
10:00 +29°C° 0.4 mm 2 m/s 748 mmHg 66%
11:00 +30°C° 0.4 mm 3 m/s 748 mmHg 62%
12:00 +31°C° 0.1 mm 3 m/s 748 mmHg 59%
13:00 +33°C° 0.1 mm 3 m/s 748 mmHg 55%
14:00 +33°C° 0.1 mm 3 m/s 747 mmHg 51%
15:00 +33°C° 0 mm 3 m/s 747 mmHg 53%
16:00 +32°C° 0 mm 2 m/s 747 mmHg 54%
17:00 +32°C° 0 mm 2 m/s 746 mmHg 55%
18:00 +30°C° 0.2 mm 2 m/s 746 mmHg 63%
19:00 +29°C° 0.2 mm 3 m/s 746 mmHg 71%
20:00 +27°C° 0.2 mm 3 m/s 746 mmHg 78%
21:00 +25°C° 1 mm 2 m/s 746 mmHg 84%
22:00 +23°C° 1 mm 2 m/s 746 mmHg 89%
23:00 +20°C° 1 mm 2 m/s 746 mmHg 94%
Mostrar mais

Necessitamos do seu Consentimento

A Meteoprog e os seus Fornecedores de Serviços podem armazenar e aceder a dados pessoais como cookies, identificadores do dispositivo ou outras tecnologias semelhantes existentes no seu dispositivo e processar estes dados para personalizar conteúdos e anúncios, assim como funcionalidades nas redes sociais e análise de tráfego.

  • Armazenar e/ou aceder a informações no seu dispositivo

    Os cookies, identificadores do dispositivo ou outras informações podem ser armazenados ou acedidos no seu dispositivo, para os fins acima indicados.

  • Anúncios e conteúdos personalizados, medição de anúncios e conteúdos, dados sobre o público-alvo e desenvolvimento de produtos

    Os anúncios e os conteúdos podem ser personalizados com base num perfil. Podem ser adicionados dados adicionais para uma maior personalização dos anúncios e dos conteúdos. A eficácia dos anúncios e dos conteúdos pode ser medida. Podem ser obtidas informações sobre o público que visualizou os anúncios e os conteúdos. Estes dados podem ser usados para desenvolver ou melhorar sistemas, softwares ou a experiência do utilizador.

Ao clicar em "Eu concordo”, permitirá o uso de cookies, identificadores do dispositivo e web beacons mencionados ou outras tecnologias semelhantes. As configurações do navegador do seu dispositivo podem ser alteradas.

Para certos fins, podem ser invocados interesses legítimos ao invés de consentimento. Pode ler mais informação sobre este assunto na nossa Política de Privacidade e Cookies.